Location: *
(37.5724°S, 58.0067°E)
Time: 11:01:37
(UTC+00:00)

USA 306 - Pass Details

Date: 26 September 2020
Orbit: 568 x 579 km, 54.0° (Epoch: 28 October)

Event Time Altitude Azimuth Distance (km) Brightness Sun altitude
Rises 14:48:00 0° 223° (SW) 2,827 7.4 -8.7°
Reaches altitude 10° 14:50:21 10° 217° (SW) 1,922 6.3 -9.1°
Maximum altitude 14:54:37 51° 141° (SE) 746 3.3 -10.0°
Enters shadow 14:58:10 14° 67° (ENE) 1,648 4.6 -10.7°
